Find Starlink 32506

NORAD ID: 62167 Int'l Des: 2024-225 Owner: SPXS Country: US Constellation: starlink operational
LEOCIRCULAR

Live Position

Loading 3D Globe...

About Starlink 32506

Description loading...

Upcoming Passes

Passes for default location (London). Set your location on the main map for personalized predictions.

Altitude History

Loading altitude history...

Two-Line Element Set

1 62167U 24225E 26126.12409433 -.00003390 00000-0 -27642-3 0 9991
2 62167 70.0008 19.8271 0002539 261.1831 98.9041 14.98335108 78477
Epoch: May 6, 2026 • Age: 7 hours

Current Status

Altitude 580.6 km
Velocity 7.57 km/s
Sub-Earth Point 48.53°N, 34.72°E
Launch Date Nov 30, 2024
Age 1.4 years
Type internet

Technical Details

Classification Payload
Mass 730.00 kg
Dry Mass 700.00 kg
Total Mass 730.00 kg
Length 0.30 m
Diameter 4.10 m
Span 29.00 m
Shape Box + pan
Manufacturer SPXS
Bus Type Starlink V2M
Phase Status In Orbit
Owner/State SPXS/US

Most Searched